Stündliche Wetter Cayambe

Heute, 26 Januar, Dienstag

Zeit Temperatur Niederschläge Wind Luftdruck Luftfeuchtigkeit
00:00 +10°C° 0.1 mm 1 m/S 528 mmHg 91%
01:00 +10°C° 0 mm 1 m/S 528 mmHg 92%
02:00 +10°C° 0.1 mm 1 m/S 528 mmHg 92%
03:00 +10°C° 0.1 mm 1 m/S 527 mmHg 91%
04:00 +10°C° 0.1 mm 1 m/S 527 mmHg 91%
05:00 +9°C° 0 mm 2 m/S 527 mmHg 90%
06:00 +9°C° 0 mm 2 m/S 528 mmHg 90%
07:00 +9°C° 0 mm 2 m/S 528 mmHg 89%
08:00 +12°C° 0 mm 2 m/S 529 mmHg 83%
09:00 +14°C° 0 mm 2 m/S 531 mmHg 77%
10:00 +15°C° 0 mm 1 m/S 532 mmHg 70%
11:00 +15°C° 0.3 mm 1 m/S 531 mmHg 73%
12:00 +15°C° 0.3 mm 1 m/S 531 mmHg 75%
13:00 +15°C° 0.3 mm 1 m/S 530 mmHg 77%
14:00 +15°C° 0.6 mm 1 m/S 530 mmHg 80%
15:00 +14°C° 0.6 mm 2 m/S 529 mmHg 82%
16:00 +14°C° 0.6 mm 2 m/S 529 mmHg 84%
17:00 +13°C° 0.4 mm 2 m/S 529 mmHg 88%
18:00 +12°C° 0.4 mm 1 m/S 528 mmHg 92%
19:00 +12°C° 0.4 mm 1 m/S 528 mmHg 95%
20:00 +11°C° 0.1 mm 1 m/S 528 mmHg 95%
21:00 +11°C° 0.1 mm 1 m/S 529 mmHg 94%
22:00 +10°C° 0.1 mm 1 m/S 529 mmHg 93%
23:00 +10°C° 0 mm 1 m/S 529 mmHg 92%

Morgen, 27 Januar, Mittwoch

Zeit Temperatur Niederschläge Wind Luftdruck Luftfeuchtigkeit
00:00 +11°C° 0 mm 1 m/S 529 mmHg 92%
01:00 +11°C° 0 mm 1 m/S 528 mmHg 91%
02:00 +11°C° 0 mm 1 m/S 528 mmHg 91%
03:00 +11°C° 0 mm 1 m/S 528 mmHg 92%
04:00 +11°C° 0 mm 1 m/S 528 mmHg 92%
05:00 +11°C° 0.3 mm 1 m/S 528 mmHg 92%
06:00 +11°C° 0.3 mm 1 m/S 529 mmHg 93%
07:00 +11°C° 0.3 mm 1 m/S 529 mmHg 93%
08:00 +12°C° 0.2 mm 1 m/S 529 mmHg 90%
09:00 +12°C° 0.2 mm 1 m/S 530 mmHg 88%
10:00 +13°C° 0.2 mm 1 m/S 531 mmHg 85%
11:00 +13°C° 0.3 mm 2 m/S 530 mmHg 83%
12:00 +14°C° 0.3 mm 2 m/S 530 mmHg 80%
13:00 +14°C° 0.3 mm 2 m/S 530 mmHg 78%
14:00 +15°C° 0.4 mm 2 m/S 530 mmHg 78%
15:00 +15°C° 0.4 mm 2 m/S 530 mmHg 77%
16:00 +15°C° 0.4 mm 2 m/S 529 mmHg 77%
17:00 +14°C° 0.3 mm 1 m/S 529 mmHg 83%
18:00 +12°C° 0.3 mm 1 m/S 528 mmHg 89%
19:00 +11°C° 0.3 mm 1 m/S 528 mmHg 95%
20:00 +10°C° 0.1 mm 1 m/S 528 mmHg 93%
21:00 +10°C° 0.1 mm 1 m/S 528 mmHg 91%
22:00 +9°C° 0.1 mm 2 m/S 528 mmHg 90%
23:00 +10°C° 0 mm 1 m/S 528 mmHg 90%

übermorgen, 28 Januar, Donnerstag

Zeit Temperatur Niederschläge Wind Luftdruck Luftfeuchtigkeit
00:00 +10°C° 0 mm 1 m/S 528 mmHg 90%
01:00 +10°C° 0 mm 1 m/S 528 mmHg 91%
02:00 +9°C° 0 mm 1 m/S 527 mmHg 91%
03:00 +9°C° 0 mm 1 m/S 527 mmHg 91%
04:00 +9°C° 0 mm 1 m/S 527 mmHg 91%
05:00 +9°C° 0 mm 1 m/S 527 mmHg 90%
06:00 +9°C° 0 mm 1 m/S 528 mmHg 90%
07:00 +10°C° 0 mm 1 m/S 528 mmHg 89%
08:00 +12°C° 0 mm 1 m/S 529 mmHg 81%
09:00 +14°C° 0 mm 1 m/S 531 mmHg 73%
10:00 +16°C° 0 mm 2 m/S 532 mmHg 65%
11:00 +16°C° 0.3 mm 2 m/S 532 mmHg 65%
12:00 +17°C° 0.3 mm 2 m/S 532 mmHg 65%
13:00 +17°C° 0.3 mm 2 m/S 531 mmHg 66%
14:00 +16°C° 0.8 mm 2 m/S 531 mmHg 72%
15:00 +15°C° 0.8 mm 2 m/S 530 mmHg 79%
16:00 +15°C° 0.8 mm 2 m/S 529 mmHg 85%
17:00 +14°C° 0.4 mm 2 m/S 528 mmHg 89%
18:00 +13°C° 0.4 mm 1 m/S 528 mmHg 93%
19:00 +12°C° 0.4 mm 1 m/S 528 mmHg 97%
20:00 +12°C° 0.2 mm 1 m/S 528 mmHg 97%
21:00 +11°C° 0.2 mm 0 m/S 529 mmHg 97%
22:00 +11°C° 0.2 mm 0 m/S 529 mmHg 97%
23:00 +11°C° 0.1 mm 0 m/S 529 mmHg 97%

29 Januar, Freitag

Zeit Temperatur Niederschläge Wind Luftdruck Luftfeuchtigkeit
00:00 +10°C° 0.1 mm 0 m/S 529 mmHg 97%
01:00 +10°C° 0.1 mm 0 m/S 529 mmHg 97%
02:00 +10°C° 0.2 mm 0 m/S 528 mmHg 97%
03:00 +10°C° 0.2 mm 0 m/S 528 mmHg 96%
04:00 +10°C° 0.2 mm 0 m/S 527 mmHg 96%
05:00 +10°C° 0.2 mm 0 m/S 528 mmHg 96%
06:00 +10°C° 0.2 mm 0 m/S 528 mmHg 96%
07:00 +10°C° 0.2 mm 0 m/S 528 mmHg 95%
08:00 +11°C° 0.2 mm 0 m/S 529 mmHg 90%
09:00 +13°C° 0.2 mm 1 m/S 530 mmHg 84%
10:00 +15°C° 0.2 mm 1 m/S 531 mmHg 79%
11:00 +15°C° 0.8 mm 1 m/S 531 mmHg 78%
12:00 +16°C° 0.8 mm 2 m/S 531 mmHg 77%
13:00 +17°C° 0.8 mm 2 m/S 531 mmHg 76%
14:00 +16°C° 1.4 mm 2 m/S 530 mmHg 79%
15:00 +15°C° 1.4 mm 2 m/S 529 mmHg 82%
16:00 +15°C° 1.4 mm 2 m/S 528 mmHg 85%
17:00 +14°C° 0.8 mm 1 m/S 528 mmHg 89%
18:00 +13°C° 0.8 mm 1 m/S 528 mmHg 93%
19:00 +12°C° 0.8 mm 1 m/S 528 mmHg 96%
20:00 +12°C° 0.6 mm 1 m/S 528 mmHg 96%
21:00 +11°C° 0.6 mm 0 m/S 528 mmHg 95%
22:00 +11°C° 0.6 mm 0 m/S 529 mmHg 95%
23:00 +10°C° 0.3 mm 0 m/S 528 mmHg 94%

30 Januar, Samstag

Zeit Temperatur Niederschläge Wind Luftdruck Luftfeuchtigkeit
00:00 +10°C° 0.3 mm 0 m/S 528 mmHg 93%
01:00 +10°C° 0.3 mm 0 m/S 528 mmHg 93%
02:00 +10°C° 0.1 mm 0 m/S 528 mmHg 92%
03:00 +10°C° 0.1 mm 0 m/S 527 mmHg 91%
04:00 +9°C° 0.1 mm 0 m/S 527 mmHg 90%
05:00 +10°C° 0 mm 0 m/S 527 mmHg 89%
06:00 +10°C° 0 mm 0 m/S 528 mmHg 89%
07:00 +10°C° 0 mm 0 m/S 528 mmHg 88%
08:00 +12°C° 0.1 mm 1 m/S 529 mmHg 84%
09:00 +13°C° 0.1 mm 1 m/S 530 mmHg 81%
10:00 +15°C° 0.1 mm 2 m/S 531 mmHg 77%
11:00 +15°C° 0.5 mm 2 m/S 531 mmHg 76%
12:00 +16°C° 0.5 mm 2 m/S 531 mmHg 75%
13:00 +16°C° 0.5 mm 2 m/S 531 mmHg 74%
14:00 +16°C° 0.9 mm 2 m/S 530 mmHg 75%
15:00 +16°C° 0.9 mm 2 m/S 530 mmHg 75%
16:00 +15°C° 0.9 mm 2 m/S 529 mmHg 76%
17:00 +14°C° 0.4 mm 2 m/S 529 mmHg 81%
18:00 +13°C° 0.4 mm 1 m/S 528 mmHg 87%
19:00 +11°C° 0.4 mm 1 m/S 527 mmHg 92%
20:00 +11°C° 0 mm 1 m/S 528 mmHg 90%
21:00 +9°C° 0 mm 2 m/S 528 mmHg 88%
22:00 +8°C° 0 mm 2 m/S 528 mmHg 86%
23:00 +7°C° 0 mm 2 m/S 527 mmHg 77%

31 Januar, Sonntag

Zeit Temperatur Niederschläge Wind Luftdruck Luftfeuchtigkeit
00:00 +7°C° 0 mm 2 m/S 527 mmHg 68%
01:00 +5°C° 0 mm 3 m/S 526 mmHg 59%
02:00 +5°C° 0 mm 3 m/S 526 mmHg 56%
03:00 +4°C° 0 mm 3 m/S 525 mmHg 54%
04:00 +4°C° 0 mm 3 m/S 525 mmHg 51%
05:00 +4°C° 0 mm 3 m/S 526 mmHg 53%
06:00 +5°C° 0 mm 3 m/S 526 mmHg 55%
07:00 +5°C° 0 mm 3 m/S 527 mmHg 57%
08:00 +9°C° 0 mm 2 m/S 529 mmHg 52%
09:00 +13°C° 0 mm 2 m/S 531 mmHg 46%
10:00 +16°C° 0 mm 2 m/S 532 mmHg 41%
11:00 +17°C° 0 mm 2 m/S 532 mmHg 41%
12:00 +18°C° 0 mm 2 m/S 532 mmHg 41%
13:00 +19°C° 0 mm 3 m/S 533 mmHg 41%
14:00 +18°C° 0 mm 2 m/S 532 mmHg 45%
15:00 +18°C° 0 mm 2 m/S 531 mmHg 49%
16:00 +17°C° 0 mm 2 m/S 530 mmHg 53%
17:00 +15°C° 0.1 mm 2 m/S 529 mmHg 66%
18:00 +13°C° 0.1 mm 1 m/S 528 mmHg 80%
19:00 +11°C° 0.1 mm 1 m/S 527 mmHg 94%
20:00 +11°C° 0 mm 1 m/S 528 mmHg 92%
21:00 +10°C° 0 mm 2 m/S 528 mmHg 91%
22:00 +9°C° 0 mm 2 m/S 529 mmHg 90%
23:00 +9°C° 0 mm 2 m/S 528 mmHg 88%
Mehr zeigen

Wir brauchen deine Erlaubnis

Meteoprog und unser Service Anbieter werden persönliche Daten aufbewahren, so wie Cookies, Geräte Bezeichnung oder ähnliche Technologien von deinem Gerät und Prozess, so wie Persönliche Daten Inhalte und Werbungen, genauso wie social Media und den Verkehr zu analysieren.

  • Aufbewahrung und/oder Zugang zu deiner Geräte Informationen.

    Cookies, Geräte Bezeichnung oder andere Informationen, können aufbewahrt oder Zugang zu deinem Gerät erhalten, für den Grund, der oben angegeben wird.

  • Personalisierte Werbung und Inhalte, Messungen, Einblick in das Publikum und Produkt Entwicklung.

    Werbungen und Inhalte können personalisiert werden, basierend auf ein Profil. Mehr Daten können besser personalisierte Werbungen und Inhalte hinzufügen. Werbung und Inhalte können gezeigt und gemessen werden. Einblicke über das Publikum, welche die Werbung gesehen haben und den Inhalt, können abgeleitet werden. So wie Daten können genutzt werden, um es zu verbessern oder die Benutzer Erfahrung zu verbessern das System und die Software.

Wenn du “Ich stimme zu” klickst, erlaubst du uns, die Cookies zu benutzen die Geräte Bezeichnung, den Web oder ähnliche Technologien zu benutzen. Deine Settings, können in deinem Gerät bei deinem Browser geändert werden.

Für den bestimmten Zweck, berechtigten Interessen beruhen darauf, mehr als auf den Inhalt. Du kannst mehr darüber in unseren Privaten und Cookie Politik lesen.